Regional Weather Roundup
Issued by NWS

Home | Current Version | Previous Version | Graphics & Text | Print | Product List | Glossary On
Versions: 1 2 3 4 5 6 7 8 9 10 11 12 13 14 15 16 17 18 19 20 21 22 23 24 25 26 27
000
ASUS45 KTFX 281910
RWRMT
MONTANA REGIONAL WEATHER ROUNDUP
NATIONAL WEATHER SERVICE GREAT FALLS MT
100 PM MDT SAT MAY 28 2016

NOTE: "FAIR" INDICATES FEW OR NO CLOUDS BELOW 12000 FEET WITH NO
SIGNIFICANT WEATHER AND/OR OBSTRUCTIONS TO VISIBILITY.

MTZ001>007-043-282000-
WEST OF THE DIVIDE

CITY           SKY/WX    TMP DP  RH WIND       PRES   REMARKS
KALISPELL      CLOUDY    56  35  45 S9        30.01S
MISSOULA       CLOUDY    56  33  42 NE5       30.06S
BUTTE          CLOUDY    52  29  41 NW12      30.04S
MULLAN PASS    CLOUDY    38  28  67 MISG      30.07R
ANACONDA         N/A     52  34  50 N6        30.03F
DEER LODGE       N/A     52  32  46 NW3       30.05F
EUREKA           N/A     55  34  44 CALM      30.00S
HAMILTON         N/A     57  27  30 S5        30.05S
LIBBY            N/A     57  30  35 CALM      30.04R
$$

MTZ008-052>055-282000-
SOUTHWEST MONTANA

CITY           SKY/WX    TMP DP  RH WIND       PRES   REMARKS
BOZEMAN        CLOUDY    56  40  55 VRB5      30.03F
DILLON         CLOUDY    56  36  47 CALM      30.02S
W YELLOWSTONE  CLOUDY    50  32  50 SW20G29   30.08F
ENNIS          PTSUNNY   48  39  71 E9G17     30.10S
$$

MTZ009-010-012-014-046-048-049-054-282000-
EAST SLOPES AND CENTRAL MONTANA

CITY           SKY/WX    TMP DP  RH WIND       PRES   REMARKS
CUT BANK       CLOUDY    54  27  35 W16G23    29.95R
GREAT FALLS    PTSUNNY   61  26  26 SW20G28   29.98S
MALMSTROM AFB  PTSUNNY   57  26  30 W9G21     29.98S
HELENA         MOSUNNY   62  29  28 W16       30.01R
CHOTEAU          N/A     55  27  33 W13       29.98S
$$

MTZ011-013-016-021-045-047-050-051-282000-
NORTH CENTRAL MONTANA

CITY           SKY/WX    TMP DP  RH WIND       PRES   REMARKS
HAVRE          CLOUDY    63  37  38 W14G26    29.92S
LEWISTOWN      MOSUNNY   57  32  38 NW9       29.98S
N BAR RANCH    CLOUDY    59  34  38 N8        29.99F
CHINOOK          N/A     61  34  36 SW15      29.93R
$$

MTZ017>020-022>027-061-062-282000-
NORTHEAST MONTANA

CITY           SKY/WX    TMP DP  RH WIND       PRES   REMARKS
GLASGOW        MOSUNNY   62  49  62 NW12      29.91S
JORDAN           N/A     66  44  45 NW12G18   29.93S
SIDNEY         PTSUNNY   64  57  77 W9        29.86R
WOLF POINT     CLOUDY    64  54  69 W17G23    29.89S
PLENTYWOOD       N/A     61  54  77 CALM      29.89F
POPLAR           N/A     63  52  67 W10G17    29.89S
$$

MTZ028>42-056>058-282000-
SOUTHCENTRAL AND SOUTHEAST MONTANA

CITY           SKY/WX    TMP DP  RH WIND       PRES   REMARKS
BAKER          CLOUDY    68  48  48 W18G28    29.91F
BILLINGS       PTSUNNY   63  38  39 N10       29.99S
LIVINGSTON     LGT RAIN  51  45  79 W14       30.02R
MILES CITY     PTSUNNY   67  47  48 W15       29.93S
FORSYTH          N/A     64  43  45 W12G21    29.94F
$$

REGIONAL REPORTS...DAKOTAS

CITY           SKY/WX    TMP DP  RH WIND       PRES   REMARKS
WILLISTON      CLOUDY    67  52  58 E8        29.87F
MINOT          CLOUDY    65  53  65 NE6       29.88F
DICKINSON      MOSUNNY   69  46  43 E9        29.84F
BEACH            N/A     68  48  49 W17G28    29.90S
CROSBY         CLOUDY    57  57 100 E10       29.93S
WATFORD CITY     N/A     70  50  49 E7        29.86F
BISMARCK       CLOUDY    67  55  65 NE7       29.87S
GRAND FORKS    CLOUDY    72  54  53 N8        29.82S
FARGO          CLOUDY    71  57  61 N12       29.79S
BUFFALO SD       N/A     67  47  48 N10       29.84S
RAPID CITY     LGT RAIN  57  53  86 W9        29.95R FOG
$$

REGIONAL REPORTS...WYOMING/IDAHO/WASHINGTON

CITY           SKY/WX    TMP DP  RH WIND       PRES   REMARKS
GILLETTE       CLOUDY    65  44  46 VRB7      29.96F
SHERIDAN       CLOUDY    62  48  60 NW10      29.99F
BUFFALO WY     CLOUDY    58  44  60 NE9       30.01F
CODY           SUNNY     59  41  51 N6        29.98F
YELLOWSTONE LA   N/A     46  24  42 VRB7      30.13R
IDAHO FALLS    MOSUNNY   60  30  32 SW20G28   30.07S
SALMON         CLOUDY    57  36  44 N7        30.01S
BOISE          SUNNY     63  29  27 N10G20    30.08F
SPOKANE        PTSUNNY   56  34  43 S14       30.06S
$$

REGIONAL REPORTS...ALBERTA

CITY           SKY/WX    TMP DP  RH WIND       PRES   REMARKS
EDMONTON       PTSUNNY   57  41  54 W6        29.85S
CALGARY        PTSUNNY   59  32  36 S7        29.87S
LETHBRIDGE     MOSUNNY   63  32  31 W17G28    29.89F
MEDICINE HAT   PTSUNNY   63  41  45 NW9       29.87S
WATERTON GATE    N/A     52  34  50 W15G26      N/A
MILK RIVER       N/A     61  28  29 W12G18      N/A
$$

REGIONAL REPORTS...SASKATCHEWAN

CITY           SKY/WX    TMP DP  RH WIND       PRES   REMARKS
SWIFT CURRENT  CLOUDY    50  46  87 NW13      29.88F
REGINA         CLOUDY    61  50  67 SE14      29.91F
SASKATOON      PTSUNNY   63  52  67 E10       29.91F
CYPRESS HILLS    N/A     52  39  62 NW7         N/A
VAL MARIE        N/A     59  45  58 NW9         N/A
ROCKGLEN         N/A     50  48  93 NW8         N/A
ASSINIBOIA       N/A     55  43  62 NW5         N/A
$$




USA.gov is the U.S. government's official web portal to all federal, state and local government web resources and services.